Date String (YYYY-MM-DD hh:mm:ss) UTC,Instrument flags,absolute air pressure of the measurement (hPa),sample flow rate (lpm),inlet stack bypass flow (lpm),air temperature of the measurement (°C),ambient temperature measured by the external sensor (°C),aerosol sample conditioner tube jacket temperature (°C),OPC LED temperature (°C),internal box temperature (°C),relative humidity of the measurement (%),span deviation,mass concentration of particles derived from Lorenz-Mie calculation of OPC scattering (μg/m³),mass concentration of particles derived from Lorenz-Mie calculation of OPC scattering (μg/m³),mass concentration of particles derived from Lorenz-Mie calculation of OPC scattering (μg/m³)
DateTimeUTC,F1_M11,P_M11,Q1_M11,Q2_M11,T1_M11,T2_M11,T3_M11,T4_M11,T5_M11,U1_M11,ZSPAN_M11,X2_M11,X0_M11,X1_M11
2023-09-14 18:00:00,SystemResetWarning,0833.7,5.00,000.00,027.9,025.6,000.0,036.3,029.3,27.7,0000.0,0005.01,0010.27,0004.53
2023-09-14 18:01:00,SystemResetWarning,0833.7,5.00,000.00,027.9,025.9,000.0,036.3,029.4,27.7,0000.0,0005.00,0010.44,0004.51
2023-09-14 18:02:00,SystemResetWarning,0833.6,5.00,000.00,027.9,026.1,000.0,036.3,029.5,27.3,0000.0,0005.00,0010.69,0004.50
2023-09-14 18:03:00,SystemResetWarning,0833.6,5.00,000.00,028.0,026.4,000.0,036.3,029.5,27.1,0000.0,0004.99,0010.19,0004.49
2023-09-14 18:04:00,SystemResetWarning,0833.7,5.01,000.00,028.0,026.6,000.0,036.3,029.6,27.1,0000.0,0004.97,0010.18,0004.49
2023-09-14 18:05:00,SystemResetWarning,0833.7,4.99,000.00,028.0,026.7,000.0,036.3,029.7,27.0,0000.0,0004.94,0010.08,0004.47
2023-09-14 18:06:00,SystemResetWarning,0833.7,4.99,000.00,028.1,026.9,000.0,036.4,029.7,26.7,0000.0,0004.96,0010.16,0004.48
2023-09-14 18:07:00,SystemResetWarning,0833.6,4.99,000.00,028.1,027.0,000.0,036.4,029.8,27.0,0000.0,0004.96,0010.08,0004.48
2023-09-14 18:08:00,SystemResetWarning,0833.7,5.00,000.00,028.2,027.1,000.0,036.4,029.9,26.2,0000.0,0004.96,0009.56,0004.46
2023-09-14 18:09:00,SystemResetWarning,0833.7,5.00,000.00,028.2,027.2,000.0,036.4,029.9,25.5,0000.0,0004.95,0009.58,0004.45
2023-09-14 18:10:00,SystemResetWarning,0833.6,5.00,000.00,028.2,027.1,000.0,036.4,029.9,25.4,0000.0,0004.96,0009.80,0004.43
2023-09-14 18:11:00,SystemResetWarning,0833.5,5.00,000.00,028.2,025.7,000.0,036.4,029.5,26.4,0000.0,0004.93,0010.20,0004.41
2023-09-14 18:12:00,SystemResetWarning,0833.5,5.01,000.00,028.1,025.0,000.0,036.4,029.4,27.3,0000.0,0004.88,0009.94,0004.39
2023-09-14 18:13:00,SystemResetWarning,0833.5,5.01,000.00,028.0,025.1,000.0,036.4,029.3,27.0,0000.0,0004.87,0009.83,0004.38
2023-09-14 18:14:00,SystemResetWarning,0833.5,5.00,000.00,028.0,025.4,000.0,036.4,029.3,27.5,0000.0,0004.87,0010.08,0004.38
2023-09-14 18:15:00,SystemResetWarning,0833.6,4.99,000.00,028.0,025.7,000.0,036.4,029.4,27.3,0000.0,0004.88,0010.14,0004.39
2023-09-14 18:16:00,SystemResetWarning,0833.5,5.00,000.00,028.0,026.0,000.0,036.4,029.5,27.1,0000.0,0004.93,0010.87,0004.40
2023-09-14 18:17:00,SystemResetWarning,0833.6,5.01,000.00,028.0,026.2,000.0,036.4,029.5,27.3,0000.0,0004.95,0011.07,0004.40
2023-09-14 18:18:00,SystemResetWarning,0833.6,5.00,000.00,028.1,026.5,000.0,036.4,029.6,26.5,0000.0,0004.96,0010.75,0004.42
2023-09-14 18:19:00,SystemResetWarning,0833.6,5.00,000.00,028.1,026.7,000.0,036.4,029.7,26.3,0000.0,0004.96,0010.35,0004.43
2023-09-14 18:20:00,SystemResetWarning,0833.5,5.01,000.00,028.1,026.8,000.0,036.4,029.7,26.4,0000.0,0005.02,0010.73,0004.44
2023-09-14 18:21:00,SystemResetWarning,0833.4,5.00,000.00,028.2,027.0,000.0,036.5,029.8,26.8,0000.0,0005.03,0010.83,0004.44
2023-09-14 18:22:00,SystemResetWarning,0833.5,4.99,000.00,028.2,026.7,000.0,036.5,029.7,26.7,0000.0,0005.02,0010.21,0004.45
2023-09-14 18:23:00,SystemResetWarning,0833.4,5.00,000.00,028.1,025.1,000.0,036.4,029.2,27.1,0000.0,0005.01,0010.03,0004.45
2023-09-14 18:24:00,SystemResetWarning,0833.4,5.02,000.00,028.0,024.1,000.0,036.3,029.0,27.4,0000.0,0005.02,0010.19,0004.45
2023-09-14 18:25:00,SystemResetWarning,0833.4,5.00,000.00,027.9,024.2,000.0,036.3,029.0,27.5,0000.0,0005.02,0009.90,0004.45
2023-09-14 18:26:00,SystemResetWarning,0833.4,5.00,000.00,027.8,024.5,000.0,036.3,029.1,27.4,0000.0,0005.03,0010.00,0004.45
2023-09-14 18:27:00,SystemResetWarning,0833.4,4.99,000.00,027.8,024.9,000.0,036.3,029.1,27.1,0000.0,0005.01,0009.73,0004.44
2023-09-14 18:28:00,SystemResetWarning,0833.4,5.01,000.00,027.8,025.3,000.0,036.3,029.2,26.6,0000.0,0004.96,0009.52,0004.42
2023-09-14 18:29:00,SystemResetWarning,0833.4,4.99,000.00,027.8,025.6,000.0,036.3,029.3,26.3,0000.0,0004.92,0009.46,0004.40
2023-09-14 18:30:00,SystemResetWarning,0833.4,4.99,000.00,027.8,025.9,000.0,036.3,029.4,26.3,0000.0,0004.93,0010.11,0004.40
2023-09-14 18:31:00,SystemResetWarning,0833.4,5.01,000.00,027.9,026.2,000.0,036.3,029.4,26.0,0000.0,0004.90,0010.30,0004.40
2023-09-14 18:32:00,SystemResetWarning,0833.4,5.01,000.00,027.9,026.5,000.0,036.3,029.5,25.9,0000.0,0004.89,0010.12,0004.41
2023-09-14 18:33:00,SystemResetWarning,0833.4,5.00,000.00,028.0,026.6,000.0,036.3,029.6,25.7,0000.0,0004.92,0010.09,0004.40
2023-09-14 18:34:00,SystemResetWarning,0833.4,5.00,000.00,028.0,026.8,000.0,036.3,029.6,26.5,0000.0,0004.95,0010.16,0004.40
2023-09-14 18:35:00,SystemResetWarning,0833.4,5.00,000.00,028.1,027.0,000.0,036.3,029.7,26.8,0000.0,0004.96,0010.16,0004.41
2023-09-14 18:36:00,SystemResetWarning,0833.4,5.00,000.00,028.1,027.1,000.0,036.3,029.8,26.9,0000.0,0004.91,0010.61,0004.39
2023-09-14 18:37:00,SystemResetWarning,0833.4,4.98,000.00,028.1,026.6,000.0,036.3,029.6,27.1,0000.0,0004.86,0010.42,0004.38
2023-09-14 18:38:00,SystemResetWarning,0833.4,5.01,000.00,028.0,024.9,000.0,036.3,029.1,27.2,0000.0,0004.84,0010.43,0004.36
2023-09-14 18:39:00,SystemResetWarning,0833.4,5.01,000.00,027.9,024.0,000.0,036.2,028.9,27.3,0000.0,0004.85,0010.02,0004.35
2023-09-14 18:40:00,SystemResetWarning,0833.3,5.01,000.00,027.8,024.1,000.0,036.2,029.0,27.6,0000.0,0004.85,0010.02,0004.36
2023-09-14 18:41:00,SystemResetWarning,0833.4,5.00,000.00,027.7,024.4,000.0,036.2,029.0,27.3,0000.0,0004.83,0009.42,0004.36
2023-09-14 18:42:00,SystemResetWarning,0833.4,5.00,000.00,027.7,024.8,000.0,036.2,029.0,27.3,0000.0,0004.80,0008.60,0004.34
2023-09-14 18:43:00,SystemResetWarning,0833.3,4.99,000.00,027.7,025.2,000.0,036.2,029.1,27.1,0000.0,0004.77,0009.17,0004.33
2023-09-14 18:44:00,SystemResetWarning,0833.3,5.00,000.00,027.7,025.6,000.0,036.1,029.2,27.6,0000.0,0004.72,0010.54,0004.31
2023-09-14 18:45:00,SystemResetWarning,0833.3,5.01,000.00,027.8,025.9,000.0,036.1,029.3,27.5,0000.0,0004.69,0011.07,0004.29
2023-09-14 18:46:00,SystemResetWarning,0833.3,5.00,000.00,027.8,026.2,000.0,036.2,029.4,27.3,0000.0,0004.64,0010.83,0004.27
2023-09-14 18:47:00,SystemResetWarning,0833.3,4.99,000.00,027.8,026.4,000.0,036.2,029.5,27.3,0000.0,0004.64,0010.31,0004.27
2023-09-14 18:48:00,SystemResetWarning,0833.3,5.00,000.00,027.9,026.6,000.0,036.2,029.5,26.9,0000.0,0004.64,0010.32,0004.26
2023-09-14 18:49:00,SystemResetWarning,0833.2,5.00,000.00,027.9,026.8,000.0,036.2,029.6,27.4,0000.0,0004.62,0010.24,0004.26
2023-09-14 18:50:00,SystemResetWarning,0833.3,5.00,000.00,028.0,026.9,000.0,036.2,029.6,27.9,0000.0,0004.62,0010.25,0004.25
2023-09-14 18:51:00,SystemResetWarning,0833.3,5.00,000.00,028.0,027.0,000.0,036.3,029.7,27.5,0000.0,0004.62,0010.29,0004.23
2023-09-14 18:52:00,SystemResetWarning,0833.2,5.00,000.00,028.1,027.0,000.0,036.3,029.8,27.7,0000.0,0004.62,0010.78,0004.22
2023-09-14 18:53:00,SystemResetWarning,0833.2,4.98,000.00,028.0,025.8,000.0,036.2,029.4,27.6,0000.0,0004.61,0010.89,0004.22
2023-09-14 18:54:00,SystemResetWarning,0833.3,5.01,000.00,027.9,024.3,000.0,036.2,028.9,27.8,0000.0,0004.60,0010.48,0004.22
2023-09-14 18:55:00,SystemResetWarning,0833.2,5.01,000.00,027.8,024.0,000.0,036.1,028.9,28.4,0000.0,0004.59,0009.14,0004.23
2023-09-14 18:56:00,SystemResetWarning,0833.2,5.00,000.00,027.7,024.2,000.0,036.1,028.9,29.1,0000.0,0004.58,0008.13,0004.23
2023-09-14 18:57:00,SystemResetWarning,0833.3,5.00,000.00,027.7,024.6,000.0,036.1,029.0,29.2,0000.0,0004.58,0008.24,0004.24
2023-09-14 18:58:00,SystemResetWarning,0833.3,5.00,000.00,027.7,025.0,000.0,036.1,029.0,29.2,0000.0,0004.60,0008.52,0004.25
2023-09-14 18:59:00,SystemResetWarning,0833.2,5.00,000.00,027.7,025.4,000.0,036.1,029.2,29.2,0000.0,0004.61,0009.02,0004.26
